Content
SEND FEEDBACK

Daily
Averages
Monthly
Summary
United States of America

BOWMAN, GEORGIA


Home > North America > United States > Georgia
Elevation: 24 meters     Latitude: 34 12N     Longitude: 083 02W

WEATHER
 
SELECT A DAY
Number of Records: 219,620;   Date Range: 1/1/95 - 10/21/14
 
SHARE

PRINT THIS DATA

[ ← Previous Day ]
WEATHER ALMANAC - 13 FEBRUARY, 2013
[ Next Day → ]
[ °F ]   °C
Weather ElementAverageHighLow
Temperature8 °C12.2 °C (2:51 pm)3.3 °C (11:51 pm)
Dewpoint6.3 °C9 °C (1:28 pm)0.6 °C (11:51 pm)
Humidity89.7 %100 % (8:09 am)67 % (3:42 pm)
Barometer1009.5 hPa1013.9 hPa (11:51 pm)1007.5 hPa (2:51 pm)
Wind Speed10.6 km/h29.6 km/h (4:15 pm)
Wind Gust46.3 km/h (4:15 pm)
Weather ElementAverage
Visibility9 km
Wind DirectionSSE (149.4 °)

Weather ElementTotal
Precipitation2.03 mm
Heating Degree Days10.6 (Base 18.3)
Averaged from 50 records on 13 February, 2013
WEATHER CONDITIONS BREAKOUT
WIND DIRECTION BREAKOUT
WEATHER BY HOUR - 13 FEBRUARY, 2013
[ °F ]   °C
Local TimeTemperatureDewpointHumidityBarometerVisibilityWind DirectionWind SpeedGust SpeedPrecipitationEventsConditions
12:33 AM7 °C6 °C93 %1011.5 hPa8 kmENE (70°)13 km/h0 mmOvercast
12:51 AM6.7 °C6.1 °C96 %1011.2 hPa14.5 kmENE (70°)11.1 km/h0 mmOvercast
1:51 AM6.7 °C6.1 °C96 %1010.8 hPa16.1 kmENE (70°)13 km/hOvercast
2:20 AM7 °C6 °C93 %1010.5 hPa4 kmENE (70°)9.3 km/h0.25 mmRainLight Rain
2:36 AM7 °C6 °C93 %1010.5 hPa6.4 kmNE (50°)9.3 km/h0.25 mmOvercast
2:51 AM6.7 °C6.1 °C96 %1010.5 hPa8 kmENE (60°)11.1 km/h0.25 mmOvercast
3:51 AM6.7 °C6.1 °C96 %1009.5 hPa4 kmENE (60°)11.1 km/h0 mmOvercast
4:51 AM6.7 °C6.1 °C96 %1008.8 hPa3.2 kmENE (70°)20.4 km/h0.25 mmOvercast
5:30 AM7 °C6 °C93 %1008.5 hPa4.8 kmENE (70°)13 km/h0 mmOvercast
5:51 AM6.7 °C6.1 °C96 %1008.5 hPa4.8 kmEast (80°)14.8 km/h0 mmOvercast
6:02 AM7 °C6 °C93 %1008.5 hPa4 kmEast (90°)13 km/hOvercast
6:31 AM7 °C6 °C93 %1007.8 hPa4.8 kmEast (80°)13 km/h0.25 mmOvercast
6:51 AM6.7 °C6.1 °C96 %1008.1 hPa6.4 kmEast (80°)11.1 km/h0.25 mmOvercast
7:45 AM7 °C6 °C93 %1008.8 hPa2.9 kmCalmOvercast
7:51 AM6.7 °C6.1 °C96 %1008.5 hPa1.9 kmEast (80°)11.1 km/hOvercast
7:59 AM7 °C6 °C93 %1009.8 hPa1.9 kmNNW (340°)7.4 km/hOvercast
8:09 AM7 °C7 °C100 %1009.5 hPa2.4 kmENE (60°)5.6 km/hOvercast
8:17 AM7 °C7 °C100 %1008.8 hPa1.9 kmESE (120°)7.4 km/hOvercast
8:34 AM7 °C7 °C100 %1008.1 hPa2.9 kmVariable7.4 km/hOvercast
8:51 AM6.7 °C6.7 °C100 %1009.5 hPa3.2 kmCalmOvercast
9:30 AM7 °C7 °C100 %1007.8 hPa2.4 kmEast (90°)7.4 km/hOvercast
9:40 AM7 °C7 °C100 %1008.5 hPa1.9 kmCalmOvercast
9:48 AM7 °C7 °C100 %1009.5 hPa2.9 kmCalmOvercast
9:51 AM7.2 °C6.7 °C97 %1008.5 hPa2.9 kmCalmOvercast
10:25 AM8 °C7 °C93 %1008.8 hPa1.6 kmCalmOvercast
10:41 AM8 °C7 °C93 %1008.8 hPa3.2 kmCalm0.25 mmOvercast
10:51 AM7.8 °C7.2 °C96 %1009.5 hPa4 kmCalm0.25 mmOvercast
11:38 AM8 °C8 °C100 %1008.1 hPa4.8 kmWest (260°)7.4 km/hOvercast
11:47 AM8 °C8 °C100 %1008.8 hPa4 kmWest (260°)9.3 km/hOvercast
11:51 AM8.3 °C7.8 °C97 %1008.5 hPa4 kmWSW (240°)7.4 km/hOvercast
11:59 AM8 °C8 °C100 %1009.1 hPa6.4 kmWSW (240°)11.1 km/hOvercast
12:34 PM9 °C8 °C93 %1008.1 hPa12.9 kmWest (270°)9.3 km/hOvercast
12:51 PM9.4 °C8.3 °C93 %1008.8 hPa16.1 kmWest (260°)14.8 km/hOvercast
1:01 PM10 °C8 °C87 %1008.5 hPa16.1 kmWest (260°)7.4 km/hOvercast
1:28 PM11 °C9 °C88 %1008.5 hPa16.1 kmWSW (250°)14.8 km/hOvercast
1:51 PM11.1 °C8.3 °C83 %1008.1 hPa16.1 kmWSW (240°)9.3 km/hOvercast
2:15 PM11 °C8 °C82 %1007.8 hPa16.1 kmWest (260°)9.3 km/hOvercast
2:51 PM12.2 °C8.3 °C77 %1007.5 hPa16.1 kmWSW (250°)16.7 km/hMostly Cloudy
3:42 PM12 °C6 °C67 %1007.8 hPa16.1 kmWest (270°)20.4 km/h33.3 km/hOvercast
3:51 PM11.7 °C6.7 °C71 %1008.1 hPa16.1 kmWest (270°)13 km/h35.2 km/hOvercast
4:03 PM12 °C7 °C72 %1007.8 hPa16.1 kmWest (270°)24.1 km/h38.9 km/hOvercast
4:15 PM11 °C6 °C71 %1008.1 hPa16.1 kmWNW (300°)29.6 km/h46.3 km/hOvercast
4:51 PM10 °C4.4 °C68 %1009.5 hPa16.1 kmWNW (290°)27.8 km/h42.6 km/hOvercast
5:51 PM8.9 °C3.9 °C71 %1010.2 hPa16.1 kmWest (270°)18.5 km/h29.6 km/hOvercast
6:51 PM8.3 °C4.4 °C77 %1010.8 hPa16.1 kmWest (270°)16.7 km/h33.3 km/hMostly Cloudy
7:51 PM8.3 °C4.4 °C77 %1011.5 hPa16.1 kmVariable9.3 km/h27.8 km/hOvercast
8:51 PM7.2 °C3.3 °C76 %1012.2 hPa16.1 kmWNW (300°)16.7 km/hClear
9:51 PM6.1 °C2.2 °C76 %1012.9 hPa16.1 kmWest (280°)13 km/hClear
10:51 PM4.4 °C1.7 °C83 %1013.5 hPa16.1 kmWest (260°)9.3 km/hClear
11:51 PM3.3 °C0.6 °C83 %1013.9 hPa16.1 kmWNW (290°)9.3 km/hClear
Hourly data recorded from KAHN, located 0 kilometers away from Bowman, Georgia







STORIES FROM OUR PARTNERS